SAS42F ENZV-ENVA

Flight info

Callsign SAS42F
Flight time 0h 56m
Altitude 35000
Route ODINU DCT NELSU
Aircraft E195/M-SDE3GILORVW/S

Departure

Time 2026-04-10 14:51
Airport Stavanger Airport, Sola (ENZV)

Arrival

Time 2026-04-10 15:47
Airport Trondheim Airport, Værnes (ENVA)
Time Latitude Longitude Altitude Speed Heading
2026-04-10 14:33 58.88315 5.63066 5 ft 0 kts 254°
2026-04-10 14:44 58.88318 5.63083 28 ft 4 kts 255°
2026-04-10 14:44 58.88324 5.63133 24 ft 4 kts 256°
2026-04-10 14:45 58.88326 5.63152 27 ft 3 kts 254°
2026-04-10 14:45 58.88326 5.63151 27 ft 0 kts 254°
2026-04-10 14:46 58.88327 5.63146 27 ft 1 kts 267°
2026-04-10 14:47 58.88331 5.63139 26 ft 1 kts 305°
2026-04-10 14:47 58.88338 5.63133 26 ft 2 kts 332°
2026-04-10 14:47 58.88362 5.63143 25 ft 5 kts 13°
2026-04-10 14:47 58.88398 5.63183 26 ft 8 kts 42°
2026-04-10 14:48 58.88438 5.63304 28 ft 14 kts 70°
2026-04-10 14:48 58.88513 5.63423 30 ft 17 kts 360°
2026-04-10 14:48 58.88648 5.63421 30 ft 21 kts 360°
2026-04-10 14:48 58.88799 5.63419 30 ft 23 kts 360°
2026-04-10 14:49 58.88968 5.63414 27 ft 25 kts 358°
2026-04-10 14:49 58.89142 5.63407 25 ft 25 kts 359°
2026-04-10 14:49 58.89310 5.63413 21 ft 22 kts 17°
2026-04-10 14:49 58.89343 5.63658 17 ft 17 kts 90°
2026-04-10 14:50 58.89317 5.63735 17 ft 5 kts 172°
2026-04-10 14:50 58.89270 5.63737 19 ft 17 kts 179°
2026-04-10 14:50 58.88929 5.63748 24 ft 80 kts 178°
2026-04-10 14:50 58.88181 5.63767 31 ft 133 kts 180°
2026-04-10 14:51 58.87156 5.63727 360 ft 151 kts 180°
2026-04-10 14:51 58.86094 5.63725 1084 ft 156 kts 175°
2026-04-10 14:51 58.84959 5.63784 1495 ft 169 kts 175°
2026-04-10 14:51 58.83765 5.63837 2016 ft 175 kts 175°
2026-04-10 14:52 58.82484 5.63896 2338 ft 192 kts 175°
2026-04-10 14:52 58.81084 5.63949 2716 ft 204 kts 175°
2026-04-10 14:52 58.79667 5.63986 3254 ft 206 kts 175°
2026-04-10 14:52 58.78194 5.64035 3641 ft 214 kts 176°
2026-04-10 14:53 58.76683 5.64077 4049 ft 219 kts 177°
2026-04-10 14:53 58.75147 5.64124 4511 ft 222 kts 177°
2026-04-10 14:53 58.73601 5.64172 4997 ft 223 kts 178°
2026-04-10 14:53 58.72031 5.64264 5415 ft 226 kts 173°
2026-04-10 14:54 58.70514 5.65161 5708 ft 234 kts 149°
2026-04-10 14:54 58.69330 5.67319 6028 ft 239 kts 124°
2026-04-10 14:54 58.68723 5.70270 6321 ft 244 kts 97°
2026-04-10 14:54 58.68710 5.73575 6706 ft 244 kts 84°
2026-04-10 14:55 58.68910 5.76795 7074 ft 244 kts 75°
2026-04-10 14:55 58.69487 5.79840 7431 ft 242 kts 57°
2026-04-10 14:55 58.70534 5.82336 7789 ft 239 kts 38°
2026-04-10 14:55 58.71961 5.83915 8154 ft 237 kts 20°
2026-04-10 14:56 58.73508 5.85124 8295 ft 247 kts 19°
2026-04-10 14:56 58.75139 5.86394 8335 ft 259 kts 19°
2026-04-10 14:56 58.76844 5.87720 8382 ft 268 kts 19°
2026-04-10 14:56 58.78583 5.89082 8579 ft 271 kts 20°
2026-04-10 14:57 58.80326 5.90467 8871 ft 271 kts 20°
2026-04-10 14:57 58.82067 5.91855 9151 ft 271 kts 20°
2026-04-10 14:57 58.83809 5.93234 9444 ft 271 kts 19°
2026-04-10 14:57 58.85553 5.94621 9720 ft 271 kts 19°
2026-04-10 14:58 58.87267 5.95988 10299 ft 260 kts 19°
2026-04-10 14:58 58.88905 5.97323 10863 ft 250 kts 20°
2026-04-10 14:58 58.90491 5.98654 11351 ft 247 kts 21°
2026-04-10 14:58 58.92071 5.99979 11732 ft 248 kts 20°
2026-04-10 14:59 58.93723 6.01212 11808 ft 261 kts 19°
2026-04-10 14:59 58.94847 6.02045 12086 ft 257 kts 20°
2026-04-10 14:59 58.96552 6.03319 12167 ft 269 kts 20°
2026-04-10 14:59 58.98333 6.04653 12183 ft 280 kts 20°
2026-04-10 15:00 59.00179 6.06041 12225 ft 288 kts 20°
2026-04-10 15:00 59.02068 6.07470 12537 ft 291 kts 20°
2026-04-10 15:00 59.04025 6.08950 12565 ft 312 kts 20°
2026-04-10 15:00 59.06087 6.10512 12850 ft 322 kts 20°
2026-04-10 15:01 59.08187 6.12106 13313 ft 326 kts 20°
2026-04-10 15:01 59.10307 6.13718 13834 ft 328 kts 21°
2026-04-10 15:01 59.12438 6.15341 14318 ft 329 kts 21°
2026-04-10 15:01 59.14575 6.16967 14788 ft 331 kts 21°
2026-04-10 15:02 59.16720 6.18607 15294 ft 332 kts 20°
2026-04-10 15:02 59.18896 6.20268 15594 ft 339 kts 22°
2026-04-10 15:02 59.21099 6.21959 16073 ft 342 kts 22°
2026-04-10 15:02 59.23322 6.23666 16581 ft 344 kts 23°
2026-04-10 15:03 59.25563 6.25387 17084 ft 347 kts 23°
2026-04-10 15:03 59.27822 6.27128 17548 ft 351 kts 23°
2026-04-10 15:03 59.30106 6.28888 18036 ft 354 kts 23°
2026-04-10 15:03 59.32405 6.30662 18469 ft 357 kts 23°
2026-04-10 15:04 59.34734 6.32464 18885 ft 361 kts 24°
2026-04-10 15:04 59.37081 6.34280 19298 ft 365 kts 24°
2026-04-10 15:04 59.39452 6.36118 19711 ft 369 kts 24°
2026-04-10 15:04 59.41849 6.37978 20136 ft 372 kts 25°
2026-04-10 15:05 59.46728 6.41773 20849 ft 383 kts 26°
2026-04-10 15:05 59.49219 6.43716 21268 ft 387 kts 26°
2026-04-10 15:05 59.51736 6.45682 21715 ft 391 kts 26°
2026-04-10 15:06 59.54275 6.47665 22117 ft 395 kts 26°
2026-04-10 15:06 59.56837 6.49673 22543 ft 398 kts 26°
2026-04-10 15:06 59.59435 6.51710 22983 ft 402 kts 26°
2026-04-10 15:06 59.62030 6.53749 23469 ft 405 kts 26°
2026-04-10 15:07 59.64657 6.55809 23863 ft 407 kts 26°
2026-04-10 15:07 59.67296 6.57885 24245 ft 409 kts 27°
2026-04-10 15:07 59.69943 6.59983 24632 ft 411 kts 27°
2026-04-10 15:07 59.72571 6.62067 25009 ft 412 kts 26°
2026-04-10 15:08 59.75274 6.64208 25423 ft 414 kts 26°
2026-04-10 15:08 59.77961 6.66342 25791 ft 417 kts 26°
2026-04-10 15:08 59.80658 6.68492 26143 ft 419 kts 26°
2026-04-10 15:08 59.83370 6.70652 26479 ft 421 kts 26°
2026-04-10 15:09 59.86098 6.72827 26821 ft 423 kts 26°
2026-04-10 15:09 59.88806 6.74992 27108 ft 426 kts 26°
2026-04-10 15:09 59.91568 6.77203 27441 ft 428 kts 26°
2026-04-10 15:09 59.94335 6.79431 27782 ft 430 kts 26°
2026-04-10 15:10 59.97115 6.81665 28112 ft 432 kts 26°
2026-04-10 15:10 59.99937 6.83934 28441 ft 434 kts 26°
2026-04-10 15:10 60.02709 6.86171 28763 ft 435 kts 26°
2026-04-10 15:10 60.05526 6.88449 29069 ft 437 kts 26°
2026-04-10 15:11 60.08353 6.90738 29356 ft 440 kts 26°
2026-04-10 15:11 60.11201 6.93041 29659 ft 442 kts 26°
2026-04-10 15:11 60.14095 6.95389 29971 ft 444 kts 26°
2026-04-10 15:11 60.16965 6.97725 30232 ft 446 kts 25°
2026-04-10 15:12 60.19846 7.00074 30470 ft 448 kts 25°
2026-04-10 15:12 60.22735 7.02434 30684 ft 450 kts 25°
2026-04-10 15:12 60.25641 7.04812 30915 ft 451 kts 25°
2026-04-10 15:12 60.28557 7.07204 31176 ft 452 kts 25°
2026-04-10 15:13 60.31467 7.09597 31430 ft 453 kts 25°
2026-04-10 15:13 60.34389 7.12003 31725 ft 453 kts 24°
2026-04-10 15:13 60.37270 7.14371 31897 ft 455 kts 24°
2026-04-10 15:13 60.40249 7.16831 32132 ft 456 kts 24°
2026-04-10 15:14 60.43147 7.19233 32426 ft 456 kts 24°
2026-04-10 15:14 60.46082 7.21672 32703 ft 455 kts 24°
2026-04-10 15:14 60.49007 7.24107 33018 ft 454 kts 24°
2026-04-10 15:14 60.51978 7.26580 33088 ft 458 kts 24°
2026-04-10 15:15 60.57922 7.31537 33087 ft 463 kts 24°
2026-04-10 15:15 60.63844 7.36503 33030 ft 463 kts 24°
2026-04-10 15:16 60.69843 7.41549 33022 ft 463 kts 24°
2026-04-10 15:16 60.75768 7.46539 33028 ft 464 kts 24°
2026-04-10 15:17 60.81730 7.51580 33014 ft 463 kts 24°
2026-04-10 15:17 60.87685 7.56634 33005 ft 463 kts 24°
2026-04-10 15:18 60.93627 7.61711 33009 ft 461 kts 24°
2026-04-10 15:18 60.99552 7.66776 33022 ft 461 kts 24°
2026-04-10 15:19 61.05476 7.71864 33001 ft 461 kts 24°
2026-04-10 15:19 61.11395 7.76977 32995 ft 462 kts 24°
2026-04-10 15:20 61.17299 7.82087 33034 ft 460 kts 24°
2026-04-10 15:20 61.23197 7.87249 33035 ft 460 kts 24°
2026-04-10 15:21 61.29084 7.92501 33030 ft 461 kts 24°
2026-04-10 15:21 61.35031 7.97745 33031 ft 461 kts 24°
2026-04-10 15:22 61.40893 8.02912 33030 ft 462 kts 24°
2026-04-10 15:22 61.46719 8.08056 33025 ft 461 kts 24°
2026-04-10 15:23 61.52732 8.13423 33040 ft 461 kts 24°
2026-04-10 15:23 61.58664 8.18723 33031 ft 460 kts 24°
2026-04-10 15:24 61.64552 8.24025 33052 ft 460 kts 24°
2026-04-10 15:24 61.70437 8.29323 33037 ft 459 kts 24°
2026-04-10 15:25 61.76336 8.34633 33047 ft 460 kts 24°
2026-04-10 15:25 61.82229 8.39899 33035 ft 460 kts 24°
2026-04-10 15:26 61.88079 8.45201 33029 ft 460 kts 24°
2026-04-10 15:26 61.94004 8.50592 33031 ft 460 kts 25°
2026-04-10 15:27 61.99892 8.56031 33024 ft 463 kts 25°
2026-04-10 15:27 62.05803 8.61468 33019 ft 463 kts 25°
2026-04-10 15:28 62.11709 8.66950 33019 ft 463 kts 25°
2026-04-10 15:28 62.17592 8.72457 33035 ft 453 kts 27°
2026-04-10 15:29 62.20426 8.75155 33036 ft 440 kts 26°
2026-04-10 15:29 62.23198 8.77767 33033 ft 432 kts 26°
2026-04-10 15:29 62.28687 8.82940 33068 ft 432 kts 28°
2026-04-10 15:30 62.34196 8.88169 33068 ft 433 kts 28°
2026-04-10 15:30 62.39698 8.93390 33031 ft 432 kts 27°
2026-04-10 15:31 62.45204 8.98621 33035 ft 432 kts 28°
2026-04-10 15:31 62.50702 9.03875 33022 ft 432 kts 27°
2026-04-10 15:32 62.56217 9.09138 33025 ft 434 kts 28°
2026-04-10 15:32 62.61733 9.14448 33009 ft 434 kts 28°
2026-04-10 15:33 62.64497 9.17112 32804 ft 437 kts 29°
2026-04-10 15:33 62.67325 9.19867 31491 ft 453 kts 30°
2026-04-10 15:33 62.70235 9.22682 30222 ft 463 kts 30°
2026-04-10 15:33 62.73218 9.25568 28677 ft 473 kts 30°
2026-04-10 15:34 62.75195 9.27496 27625 ft 474 kts 30°
2026-04-10 15:34 62.78219 9.30433 25961 ft 469 kts 30°
2026-04-10 15:34 62.81170 9.33301 24279 ft 461 kts 29°
2026-04-10 15:34 62.84083 9.36109 22437 ft 455 kts 29°
2026-04-10 15:35 62.86964 9.38909 21134 ft 451 kts 29°
2026-04-10 15:35 62.89808 9.41686 20167 ft 440 kts 28°
2026-04-10 15:35 62.92567 9.44373 19549 ft 429 kts 28°
2026-04-10 15:35 62.95259 9.47038 19013 ft 419 kts 29°
2026-04-10 15:36 62.97847 9.49613 18476 ft 399 kts 29°
2026-04-10 15:36 63.00314 9.52084 17897 ft 382 kts 29°
2026-04-10 15:36 63.02703 9.54486 17217 ft 376 kts 29°
2026-04-10 15:36 63.05116 9.56900 16547 ft 382 kts 28°
2026-04-10 15:37 63.07538 9.59329 15867 ft 382 kts 28°
2026-04-10 15:37 63.09957 9.61726 15199 ft 379 kts 28°
2026-04-10 15:37 63.12159 9.64698 14500 ft 365 kts 44°
2026-04-10 15:37 63.13968 9.68509 13802 ft 356 kts 51°
2026-04-10 15:38 63.15712 9.72321 13052 ft 350 kts 48°
2026-04-10 15:38 63.17477 9.75964 12277 ft 344 kts 47°
2026-04-10 15:38 63.19227 9.79515 11520 ft 338 kts 46°
2026-04-10 15:38 63.20948 9.82980 10938 ft 328 kts 46°
2026-04-10 15:39 63.22626 9.86345 10460 ft 324 kts 46°
2026-04-10 15:39 63.24302 9.89684 10004 ft 323 kts 45°
2026-04-10 15:39 63.25968 9.92996 9559 ft 319 kts 45°
2026-04-10 15:39 63.27612 9.96261 9115 ft 316 kts 45°
2026-04-10 15:40 63.29245 9.99502 8704 ft 313 kts 45°
2026-04-10 15:40 63.30864 10.02716 8285 ft 311 kts 45°
2026-04-10 15:40 63.32469 10.05915 7866 ft 308 kts 44°
2026-04-10 15:40 63.34059 10.09078 7478 ft 306 kts 44°
2026-04-10 15:41 63.35623 10.12269 7092 ft 303 kts 50°
2026-04-10 15:41 63.36815 10.16067 6696 ft 296 kts 65°
2026-04-10 15:41 63.37720 10.20163 6305 ft 294 kts 68°
2026-04-10 15:41 63.38632 10.24248 5884 ft 293 kts 66°
2026-04-10 15:42 63.39554 10.28265 5534 ft 291 kts 66°
2026-04-10 15:42 63.40485 10.32273 5137 ft 291 kts 65°
2026-04-10 15:42 63.41422 10.36283 4771 ft 290 kts 66°
2026-04-10 15:42 63.42350 10.40263 4393 ft 288 kts 66°
2026-04-10 15:43 63.43277 10.44204 3979 ft 282 kts 68°
2026-04-10 15:43 63.44171 10.47990 3614 ft 268 kts 69°
2026-04-10 15:43 63.45021 10.51614 3297 ft 260 kts 69°
2026-04-10 15:43 63.45808 10.55121 3063 ft 241 kts 79°
2026-04-10 15:44 63.45885 10.58601 2828 ft 214 kts 106°
2026-04-10 15:44 63.45732 10.61869 2522 ft 212 kts 99°
2026-04-10 15:44 63.45800 10.65135 2226 ft 207 kts 96°
2026-04-10 15:44 63.45790 10.68274 1945 ft 198 kts 101°
2026-04-10 15:45 63.45764 10.71316 1675 ft 194 kts 99°
2026-04-10 15:45 63.45789 10.74231 1421 ft 178 kts 99°
2026-04-10 15:45 63.45772 10.76863 1148 ft 163 kts 99°
2026-04-10 15:45 63.45776 10.79307 908 ft 150 kts 94°
2026-04-10 15:46 63.45809 10.81587 711 ft 145 kts 93°
2026-04-10 15:46 63.45803 10.83800 540 ft 141 kts 99°
2026-04-10 15:46 63.45771 10.85989 362 ft 142 kts 96°
2026-04-10 15:46 63.45772 10.88244 139 ft 140 kts 97°
2026-04-10 15:47 63.45765 10.90219 32 ft 130 kts 94°
2026-04-10 15:47 63.45759 10.91871 38 ft 72 kts 87°
2026-04-10 15:47 63.45748 10.92425 39 ft 10 kts 137°
2026-04-10 15:47 63.45689 10.92430 39 ft 9 kts 180°
2026-04-10 15:48 63.45623 10.92429 41 ft 10 kts 180°
2026-04-10 15:48 63.45596 10.92344 40 ft 8 kts 261°
2026-04-10 15:48 63.45595 10.92190 40 ft 11 kts 270°
2026-04-10 15:48 63.45596 10.91994 39 ft 14 kts 270°
2026-04-10 15:49 63.45570 10.91825 37 ft 11 kts 195°
2026-04-10 15:49 63.45507 10.91825 37 ft 3 kts 180°
2026-04-10 15:49 63.45498 10.91825 37 ft 0 kts 180°